[[{"header":{"parameterUnit":"m.s-1","parameterCategory":1,"la1":30.2991,"la2":30.254,"lo1":-89.0895,"lo2":-89.0444,"dy":0.0017,"dx":0.0017,"nx":28,"ny":28,"refTime":"2025-12-16T09:00:00:Z","depth":0,"parameterNumber":2,"parameterNumberName":"U-component_of_WINDS"},"data":[0,0,0,0,0,0,0,0,0,0,0,0,0,0,0,0,0,0,0,0,0,0,0,0,0,0,0,0,0,0,0,0,0,0,0,0,0,0,0,0,0,0,0,0,0,0,0,0,0,0,0,0,0,0,0,0,0,0,-2.7768,-2.7769,0,-2.7842,-2.7843,-2.7844,-2.775,-2.7747,-2.7743,-2.774,-2.7817,-2.7822,-2.7828,0,0,0,0,0,0,0,0,0,0,0,0,0,-2.7546,-2.7551,-2.7768,-2.7769,-2.777,-2.7842,-2.7843,-2.7844,-2.7751,-2.7747,-2.7743,-2.7739,-2.7816,-2.7822,-2.7828,0,0,0,0,0,0,0,0,0,0,0,0,0,-2.7634,-2.7552,-2.7768,-2.7732,-2.7729,-2.7842,-2.7843,-2.7844,-2.7752,-2.7747,-2.7741,-2.7737,-2.7813,-2.7821,-2.7829,-2.798,0,0,-2.7853,-2.7856,0,0,0,0,0,0,0,0,-2.7629,-2.7642,-2.7736,-2.7735,-2.7732,-2.7782,-2.7793,-2.789,-2.7753,-2.7743,-2.774,-2.7734,-2.781,-2.7817,-2.7843,-2.7984,-2.7987,-2.7854,-2.7858,-2.7862,-2.7864,0,0,0,0,0,0,0,-2.7623,-2.7638,-2.7797,-2.7738,-2.7735,-2.7712,-2.7719,-2.7811,-2.7804,-2.7744,-2.7737,-2.7747,-2.7807,-2.7835,-2.7844,-2.7988,-2.7853,-2.786,-2.7865,-2.7868,-2.8256,-2.8261,0,0,0,0,0,0,-2.7621,-2.7634,-2.7795,-2.7799,-2.7667,-2.7721,-2.7728,-2.7771,-2.7803,-2.7803,-2.7751,-2.7743,-2.7824,-2.7835,-2.7846,-2.8025,-2.7862,-2.7869,-2.7874,-2.8251,-2.8257,-2.8263,0,0,0,0,0,0,-2.7617,-2.7636,-2.7792,-2.7715,-2.7733,-2.773,-2.7779,-2.7775,-2.7803,-2.7809,-2.7807,-2.7781,-2.7821,-2.7835,-2.7947,-2.8027,-2.7873,-2.788,-2.8244,-2.8253,-2.826,-2.8385,0,0,0,0,0,0,-2.7611,-2.7635,-2.7693,-2.7717,-2.7737,-2.7892,-2.7783,-2.778,-2.7816,-2.7805,-2.7836,-2.7836,-2.7818,-2.7936,-2.7955,-2.8035,-2.7886,-2.8237,-2.8248,-2.8258,-2.8374,-2.8396,-2.8416,0,0,0,0,0,-2.7603,-2.7725,-2.7696,-2.7716,-2.7809,-2.7897,-2.7909,-2.7884,-2.7823,-2.7881,-2.7885,-2.7835,-2.8015,-2.7948,-2.7969,-2.8052,-2.8232,-2.8245,-2.8257,-2.8364,-2.8392,-2.8415,0,0,0,0,0,0,-2.7711,-2.7728,-2.7696,-2.7829,-2.7862,-2.7881,-2.7953,-2.7915,-2.7966,-2.7954,-2.7921,-2.7929,-2.8049,-2.8061,-2.7987,-2.82,-2.8113,-2.813,-2.8188,-2.8214,-2.8235,-2.823,-2.7892,0,0,0,0,0,-2.775,-2.782,-2.7831,-2.7947,-2.7965,-2.7957,-2.7994,-2.7972,-2.8005,-2.8019,-2.8031,-2.8065,-2.8129,-2.8172,-2.8231,-2.8374,-2.838,-2.8442,-2.8463,-2.848,-2.8496,-2.8573,-2.86,-2.8305,-2.8305,-2.8304,0,0,-2.7832,-2.785,-2.7896,-2.7969,-2.7992,-2.8066,-2.7969,-2.805,-2.8104,-2.8031,-2.8138,-2.8148,-2.8184,-2.8313,-2.837,-2.8327,-2.8578,-2.8496,-2.851,-2.8516,-2.8588,-2.8616,-2.8641,-2.8313,-2.8312,-2.831,0,0,-2.8019,-2.8039,-2.8139,-2.8164,-2.8199,-2.8193,-2.8217,-2.8241,-2.8245,-2.8351,-2.8298,-2.8361,-2.8472,-2.85,-2.8529,-2.8725,-2.8682,-2.8745,-2.8856,-2.8931,-2.8955,-2.8975,-2.9046,-2.9071,-2.876,-2.8761,-2.8761,0,-2.8117,-2.8224,-2.8195,-2.828,-2.8314,-2.825,-2.8351,-2.8376,-2.843,-2.8455,-2.8406,-2.8543,-2.8563,-2.8697,-2.8745,-2.877,-2.8797,-2.8742,-2.8953,-2.8974,-2.8993,-2.9059,-2.9086,-2.8768,-2.8767,-2.8767,-2.8766,0,-2.8343,-2.8418,-2.8494,-2.8547,-2.8589,-2.8682,-2.8667,-2.8713,-2.8687,-2.8686,-2.8795,-2.8816,-2.8878,-2.8908,-2.8884,-2.9039,-2.9011,-2.8958,-2.8871,-2.9029,-2.9091,-2.9116,-2.8779,-2.8776,-2.8774,-2.8772,0,0,-2.8601,-2.8636,-2.8664,-2.8687,-2.8722,-2.878,-2.8869,-2.8929,-2.897,-2.9009,-2.9083,-2.9178,-2.9129,-2.9162,-2.914,-2.9206,-2.936,-2.9145,-2.9145,-2.9185,-2.9533,-2.9573,-2.9603,-2.9331,-2.9336,-2.934,-2.953,0,-2.8789,-2.8943,-2.8919,-2.9068,-2.9138,-2.9078,-2.9156,-2.9185,-2.9186,-2.9245,-2.9245,-2.9313,-2.9243,-2.9263,-2.9325,-2.9329,-2.943,-2.9314,-2.9401,-2.9404,-2.9395,-2.9636,-2.9679,-2.9857,-2.9554,-2.9558,-2.9561,0,-2.9028,-2.9076,-2.9232,-2.9255,-2.9283,-2.9354,-2.9407,-2.9464,-2.9496,-2.9492,-2.9528,-2.9494,-2.9583,-2.9494,-2.9616,-2.9538,-2.9572,-2.9579,-2.9585,-2.9593,-2.9493,-2.9651,-2.9914,-2.9941,-2.9599,-2.9596,-2.9593,0,-2.9202,-2.9305,-2.9411,-2.9433,-2.9462,-2.9513,-2.9528,-2.9555,-2.9593,-2.9639,-2.9663,-2.972,-2.9751,-2.9795,-2.9777,-2.9713,-2.9904,-2.9812,-2.9903,-2.9904,-2.9947,-2.9945,-3.022,-2.9968,-2.9967,-2.9967,-2.9966,0,-2.9415,-2.9513,-2.949,-2.9556,-2.9664,-2.9635,-2.9743,-2.975,-2.9774,-2.9841,-2.9792,-2.9855,-2.9827,-2.9889,-2.9875,-2.9979,-2.9993,-2.9993,-2.9988,-2.9998,-2.9998,-3.002,-3.0008,-2.9974,-2.9972,-2.9971,-2.997,0,-2.9628,-2.9616,-2.9728,-2.9747,-2.9754,-2.9833,-2.9848,-2.991,-2.9906,-2.9991,-3.0009,-3.0003,-3.0073,-3.0059,-3.0136,-3.0127,-3.0257,-3.0237,-3.0247,-3.0242,-3.0334,-3.0326,-3.0634,-3.0673,-3.0395,-3.0397,-3.04,0,-2.9764,-2.9839,-2.9865,-2.9905,-2.9924,-2.999,-3.0028,-3.0002,-3.0043,-3.0085,-3.0142,-3.0207,-3.0258,-3.0372,-3.0375,-3.0433,-3.0415,-3.0518,-3.0423,-3.043,-3.0417,-3.0413,-3.0421,-3.0538,-3.0541,-3.0543,-3.0545,0,-3.0009,-2.9999,-3.0056,-3.0111,-3.0157,-3.0199,-3.0236,-3.0273,-3.0249,-3.0298,-3.0369,-3.0408,-3.0486,-3.0552,-3.0606,-3.062,-3.058,-3.0575,-3.0599,-3.0611,-3.0613,-3.0614,-3.0299,-3.0569,-3.0566,-3.0565,-3.0563,-3.0562,-3.0189,-3.0252,-3.028,-3.0344,-3.0369,-3.0405,-3.0464,-3.0467,-3.0525,-3.0587,-3.0567,-3.0648,-3.0677,-3.0745,-3.0767,-3.0829,-3.079,-3.0825,-3.0834,-3.0844,-3.0855,-3.0603,-3.0839,-3.0838,-3.0837,-3.0837,-3.0836,0,-3.0431,-3.0446,-3.0506,-3.0559,-3.061,-3.0566,-3.0604,-3.065,-3.0721,-3.0752,-3.0803,-3.0883,-3.0946,-3.0954,-3.1014,-3.1062,-3.1045,-3.1079,-3.1075,-3.108,-3.0886,-3.086,-3.1092,-3.1092,-3.1092,-3.1092,-3.1091,-3.1091,-3.0563,-3.0668,-3.0662,-3.0778,-3.0791,-3.087,-3.0896,-3.0928,-3.0953,-3.1045,-3.1097,-3.1101,-3.1123,-3.1183,-3.1239,-3.1239,-3.1264,-3.1306,-3.1299,-3.1119,-3.1093,-3.1069,-3.1044,-3.1311,-3.1311,-3.1487,-3.1489,-3.149]},{"header":{"parameterUnit":"m.s-1","parameterCategory":1,"la1":30.2991,"la2":30.254,"lo1":-89.0895,"lo2":-89.0444,"dy":0.0017,"dx":0.0017,"nx":28,"ny":28,"refTime":"2025-12-16T09:00:00:Z","depth":0,"parameterNumber":3,"parameterNumberName":"V-component_of_WINDS"},"data":[0,0,0,0,0,0,0,0,0,0,0,0,0,0,0,0,0,0,0,0,0,0,0,0,0,0,0,0,0,0,0,0,0,0,0,0,0,0,0,0,0,0,0,0,0,0,0,0,0,0,0,0,0,0,0,0,0,0,-3.3763,-3.3763,0,-3.3811,-3.3812,-3.3812,-3.3768,-3.3766,-3.3764,-3.3763,-3.3809,-3.3812,-3.3815,0,0,0,0,0,0,0,0,0,0,0,0,0,-3.3627,-3.3629,-3.3763,-3.3763,-3.3764,-3.3811,-3.3812,-3.3813,-3.3768,-3.3766,-3.3764,-3.3762,-3.3808,-3.3812,-3.3815,0,0,0,0,0,0,0,0,0,0,0,0,0,-3.3682,-3.363,-3.3763,-3.3748,-3.3747,-3.3811,-3.3812,-3.3813,-3.3769,-3.3766,-3.3763,-3.3761,-3.3807,-3.3811,-3.3816,-3.3896,0,0,-3.3829,-3.3831,0,0,0,0,0,0,0,0,-3.3679,-3.3687,-3.3749,-3.3749,-3.3748,-3.3781,-3.3781,-3.3841,-3.3769,-3.376,-3.3763,-3.376,-3.3802,-3.3806,-3.3821,-3.3898,-3.39,-3.3829,-3.3832,-3.3834,-3.3835,0,0,0,0,0,0,0,-3.3675,-3.3684,-3.3782,-3.375,-3.3749,-3.3737,-3.3742,-3.3792,-3.3795,-3.3761,-3.3758,-3.3764,-3.3801,-3.3817,-3.3822,-3.3901,-3.3829,-3.3833,-3.3836,-3.3837,-3.4045,-3.4047,0,0,0,0,0,0,-3.3673,-3.3681,-3.378,-3.3783,-3.3706,-3.3742,-3.3747,-3.3773,-3.3795,-3.3795,-3.3767,-3.3762,-3.3811,-3.3817,-3.3823,-3.3918,-3.3834,-3.3838,-3.384,-3.4042,-3.4045,-3.4048,0,0,0,0,0,0,-3.367,-3.3682,-3.3778,-3.3732,-3.3743,-3.3747,-3.3776,-3.3775,-3.3792,-3.3799,-3.3799,-3.3783,-3.3809,-3.3817,-3.3878,-3.3919,-3.384,-3.3844,-3.4038,-3.4043,-3.4047,-3.4108,0,0,0,0,0,0,-3.3667,-3.3682,-3.3714,-3.3733,-3.3746,-3.3834,-3.3779,-3.3778,-3.38,-3.3794,-3.3814,-3.3815,-3.3808,-3.3872,-3.3883,-3.3923,-3.3847,-3.4035,-3.404,-3.4045,-3.4103,-3.4114,-3.4124,0,0,0,0,0,-3.3662,-3.3729,-3.3715,-3.3728,-3.3786,-3.3836,-3.3843,-3.3835,-3.3803,-3.3834,-3.3839,-3.3814,-3.3913,-3.3879,-3.389,-3.3933,-3.4032,-3.4039,-3.4045,-3.4098,-3.4112,-3.4124,0,0,0,0,0,0,-3.3713,-3.3731,-3.3716,-3.3792,-3.3813,-3.3829,-3.3868,-3.385,-3.388,-3.3873,-3.386,-3.3865,-3.3929,-3.3937,-3.3898,-3.4011,-3.3967,-3.3976,-3.4003,-3.4017,-3.4027,-3.4024,-3.3851,0,0,0,0,0,-3.3734,-3.3775,-3.3787,-3.3852,-3.3864,-3.3864,-3.3886,-3.3877,-3.3898,-3.3907,-3.3915,-3.3936,-3.3971,-3.3994,-3.4028,-3.4104,-3.4106,-3.4139,-3.415,-3.4158,-3.4166,-3.4205,-3.4219,-3.407,-3.407,-3.407,0,0,-3.3775,-3.379,-3.3817,-3.3863,-3.3878,-3.3919,-3.3872,-3.3918,-3.3948,-3.3913,-3.3971,-3.3978,-3.4,-3.4069,-3.4099,-3.4077,-3.4208,-3.4167,-3.4174,-3.4176,-3.4213,-3.4227,-3.424,-3.4074,-3.4073,-3.4073,0,0,-3.3872,-3.3889,-3.3944,-3.396,-3.3984,-3.3984,-3.3997,-3.4016,-3.402,-3.4078,-3.4052,-3.4087,-3.4149,-3.4164,-3.4181,-3.4283,-3.4261,-3.4294,-3.4349,-3.4388,-3.4399,-3.441,-3.4444,-3.4457,-3.4301,-3.4302,-3.4302,0,-3.3921,-3.3983,-3.3974,-3.4021,-3.4042,-3.4013,-3.4068,-3.4084,-3.4117,-3.4131,-3.4106,-3.4182,-3.4195,-3.4266,-3.4291,-3.4305,-3.4318,-3.4291,-3.4399,-3.4409,-3.4418,-3.4451,-3.4465,-3.4305,-3.4305,-3.4305,-3.4304,0,-3.4041,-3.4084,-3.4126,-3.4159,-3.4184,-3.4235,-3.4232,-3.4258,-3.4247,-3.4248,-3.4307,-3.4321,-3.4356,-3.4372,-3.4362,-3.4441,-3.4427,-3.4401,-3.4356,-3.4437,-3.4467,-3.448,-3.4311,-3.4309,-3.4308,-3.4307,0,0,-3.4171,-3.4199,-3.4214,-3.4228,-3.4253,-3.4285,-3.4334,-3.4369,-3.4391,-3.4415,-3.4454,-3.4506,-3.4482,-3.45,-3.4491,-3.4525,-3.4603,-3.4494,-3.4495,-3.4513,-3.4689,-3.4708,-3.4723,-3.4589,-3.4591,-3.4593,-3.4687,0,-3.4268,-3.4354,-3.4346,-3.4427,-3.4466,-3.4439,-3.4481,-3.45,-3.4503,-3.4535,-3.4537,-3.4574,-3.454,-3.4551,-3.4583,-3.4586,-3.4638,-3.458,-3.4623,-3.4625,-3.4618,-3.4739,-3.4759,-3.4847,-3.4699,-3.4701,-3.4703,0,-3.4393,-3.4421,-3.4506,-3.4523,-3.4539,-3.4578,-3.4608,-3.464,-3.4659,-3.4659,-3.4679,-3.4664,-3.4711,-3.4666,-3.473,-3.4691,-3.4708,-3.4712,-3.4715,-3.4718,-3.4668,-3.4744,-3.4875,-3.4888,-3.4722,-3.472,-3.4719,0,-3.4477,-3.4537,-3.4595,-3.4609,-3.4631,-3.4658,-3.4668,-3.4685,-3.4706,-3.4732,-3.4745,-3.4776,-3.4793,-3.4817,-3.4809,-3.4778,-3.4874,-3.4829,-3.4873,-3.4874,-3.4894,-3.4893,-3.5029,-3.4908,-3.4907,-3.4907,-3.4907,0,-3.4585,-3.4638,-3.4634,-3.4669,-3.4727,-3.4717,-3.4773,-3.478,-3.4795,-3.483,-3.4809,-3.4842,-3.4831,-3.4863,-3.4858,-3.491,-3.4918,-3.4918,-3.4915,-3.4919,-3.4919,-3.4929,-3.4922,-3.4911,-3.491,-3.4909,-3.4909,0,-3.4689,-3.4689,-3.475,-3.4766,-3.4771,-3.4813,-3.4825,-3.4858,-3.4859,-3.4903,-3.4913,-3.4914,-3.4951,-3.4946,-3.4987,-3.4983,-3.5048,-3.5039,-3.5041,-3.5039,-3.5083,-3.5078,-3.5229,-3.5248,-3.5116,-3.5117,-3.5118,0,-3.4758,-3.4798,-3.4818,-3.484,-3.4852,-3.4889,-3.491,-3.4901,-3.4924,-3.4949,-3.4978,-3.5013,-3.504,-3.51,-3.5103,-3.5133,-3.5124,-3.5175,-3.5128,-3.513,-3.5123,-3.512,-3.5123,-3.5184,-3.5185,-3.5186,-3.5187,0,-3.4879,-3.4876,-3.4909,-3.4941,-3.4967,-3.4991,-3.5013,-3.5032,-3.5025,-3.5052,-3.5089,-3.5111,-3.5152,-3.5186,-3.5215,-3.5223,-3.5204,-3.5202,-3.5214,-3.5217,-3.5217,-3.5216,-3.5065,-3.5198,-3.5197,-3.5197,-3.5196,-3.5196,-3.4966,-3.5,-3.5019,-3.5055,-3.5071,-3.5091,-3.5123,-3.5127,-3.5159,-3.5193,-3.5185,-3.5227,-3.5244,-3.5281,-3.5292,-3.5324,-3.5305,-3.5322,-3.5326,-3.533,-3.5335,-3.5213,-3.5329,-3.5329,-3.5328,-3.5328,-3.5328,0,-3.5084,-3.5095,-3.5129,-3.516,-3.5188,-3.5169,-3.5192,-3.5216,-3.5254,-3.5272,-3.5299,-3.5341,-3.5374,-3.538,-3.5411,-3.5435,-3.5426,-3.5443,-3.544,-3.5442,-3.5351,-3.5337,-3.5449,-3.5449,-3.5449,-3.5449,-3.5449,-3.5449,-3.5149,-3.5205,-3.5204,-3.5266,-3.5276,-3.5318,-3.5333,-3.5351,-3.5365,-3.5414,-3.5441,-3.5445,-3.5458,-3.5489,-3.5518,-3.5519,-3.553,-3.555,-3.5547,-3.5461,-3.5449,-3.5437,-3.5424,-3.5553,-3.5553,-3.5636,-3.5637,-3.5637]}]]